Probability
0 0 0 0 0 0 0 0 0 0 0 0 0 0 0 0 0 0 1 2 5 7 8 12 24 43 65 82 91 95 97 98 99 96 89 81 72 57 39 28 24 21 19 17
0 0 0 0 0 0 0 0 0 0 0 0 0 0 0 0 0 2 6 10 15 19 19 20 28 43 62 79 90 96 98 99 97 92 84 73 57 38 21 14 12 11 10 9
0 0 0 0 0 0 0 0 0 0 0 0 0 0 0 0 2 8 18 29 38 41 38 32 31 39 54 71 86 94 98 98 93 86 75 61 42 21 8 3 2 2 2 2
0 0 0 0 0 0 0 0 0 0 0 0 0 0 0 0 4 17 36 52 62 64 58 47 41 45 54 67 82 92 97 95 89 81 70 55 37 19 7 2 0 0 0 0
0 0 0 0 0 0 0 0 0 0 0 0 0 0 0 2 10 29 53 70 75 74 68 62 63 67 71 79 87 93 94 89 80 71 62 48 32 16 6 1 0 0 0 0
0 0 0 0 0 0 0 0 0 0 0 0 0 0 3 10 24 43 65 77 76 71 68 72 80 84 86 89 92 90 83 72 60 51 44 34 21 9 2 0 0 0 0 0
0 0 0 0 0 0 0 0 0 0 0 0 0 1 9 22 34 47 62 68 62 56 57 65 74 78 78 77 76 70 59 46 35 30 25 18 10 3 0 0 0 0 0 0
0 0 0 0 0 0 0 0 0 0 0 0 0 3 13 22 26 34 43 43 37 33 35 41 47 51 52 50 46 40 31 22 16 13 9 6 3 1 0 0 0 0 0 0
0 0 0 0 0 0 0 0 0 0 0 0 0 4 10 12 14 22 26 21 15 12 13 15 19 22 22 22 20 18 13 8 5 3 2 1 1 0 0 0 0 0 0 0
0 0 0 0 0 0 0 0 0 0 0 0 0 2 5 10 16 20 18 12 6 3 2 3 4 4 5 5 5 5 4 2 0 0 0 0 0 0 0 0 0 0 0 0
0 0 0 0 0 0 0 0 0 0 0 0 0 1 7 17 24 20 13 7 2 0 0 0 0 0 0 0 0 0 0 0 0 0 0 0 0 0 0 0 0 0 0 0
0 0 0 0 0 0 0 0 0 0 0 0 1 5 17 30 31 18 6 2 0 0 0 0 0 0 0 0 0 0 0 0 0 0 0 0 0 0 0 0 0 0 0 0
0 0 0 0 0 0 0 0 0 0 0 0 1 9 25 39 32 15 3 0 0 0 0 0 0 0 0 0 0 0 0 0 0 0 0 0 0 0 0 0 0 0 0 0
0 0 0 0 0 0 0 0 0 0 0 0 3 11 27 37 30 12 2 0 0 0 0 0 0 0 0 0 0 0 0 0 0 0 0 0 0 0 0 0 0 0 0 0
0 0 0 0 0 0 0 0 0 0 0 1 7 20 32 37 28 13 3 0 0 0 0 0 0 0 0 0 0 0 0 0 0 0 0 0 0 0 0 0 0 0 0 0
0 0 0 0 0 0 0 0 1 2 3 4 12 28 38 38 28 15 6 1 0 0 0 0 0 0 0 0 0 0 0 0 0 0 0 0 0 0 0 0 0 0 0 0
0 0 0 0 0 0 0 0 2 4 6 10 18 29 35 32 22 11 5 1 0 0 0 0 0 0 0 0 0 0 0 0 0 0 0 0 0 0 0 0 0 0 0 0
0 0 0 0 0 0 0 0 1 3 6 12 20 25 24 18 10 4 1 0 0 0 0 0 0 0 0 0 0 0 0 0 0 0 0 0 0 0 0 0 0 0 0 0
0 0 0 0 0 0 0 0 0 1 2 7 12 15 11 5 2 0 0 0 0 0 0 0 0 0 0 0 0 0 0 0 0 0 0 0 0 0 0 0 0 0 0 0
0 0 0 0 0 0 0 0 0 0 0 1 3 3 2 0 0 0 0 0 0 0 0 0 0 0 0 0 0 0 0 0 0 0 0 0 0 0 0 0 0 0 0 0
0 0 0 0 0 0 0 0 0 0 0 0 0 0 0 0 0 0 0 0 0 0 0 0 0 0 0 0 0 0 0 0 0 0 0 0 0 0 0 0 0 0 0 0
0 0 0 0 0 0 0 0 0 0 0 0 0 0 0 0 0 0 0 0 0 0 0 0 0 0 0 0 0 0 0 0 0 0 0 0 0 0 0 0 0 0 0 0
0 0 0 0 0 0 0 0 0 0 0 0 0 0 0 0 0 0 0 0 0 0 0 0 0 0 0 0 0 0 0 0 0 0 0 0 0 0 0 0 0 0 0 0
0 0 0 0 0 0 0 0 0 0 0 0 0 0 0 0 0 0 0 0 0 0 0 0 0 0 0 0 0 0 0 0 0 0 0 0 0 0 0 0 0 0 0 0
0 0 0 0 0 0 0 0 0 0 0 0 0 0 0 0 0 0 0 0 0 0 0 0 0 0 0 0 0 0 0 0 0 0 0 0 0 0 0 0 0 0 0 0
0 0 0 0 0 0 0 0 0 0 0 0 0 0 0 0 0 0 0 0 0 0 0 0 0 0 0 0 0 0 0 0 0 0 0 0 0 0 0 0 0 0 0 0
Wind_Speed
13 13 14 15 17 9 5 11 12 10 4 8 11 11 9 5 6 6 5 5 5 7 8 9 14 15 16 15 15 15 15 14 12 9 9 8 6 4 4 3 4 4 4 5
12 17 14 11 14 14 10 10 10 8 4 7 10 12 11 8 6 3 3 3 5 6 6 6 9 14 16 16 16 16 15 14 13 10 8 6 7 5 5 4 4 4 5 5
18 8 12 12 14 17 16 14 12 9 6 9 9 14 14 10 6 3 1 3 5 7 9 7 7 10 14 16 16 14 15 14 13 12 9 9 7 5 4 4 3 4 5 5
16 7 10 15 16 16 15 14 12 10 11 11 9 14 14 11 10 5 1 5 8 9 9 7 4 6 9 12 13 13 13 13 13 13 12 12 8 7 5 5 5 6 6 6
12 12 13 15 15 16 11 10 11 11 11 11 10 11 11 11 12 5 5 8 10 10 8 7 5 2 2 5 8 10 12 12 12 12 13 11 9 8 7 8 9 7 6 7
11 9 12 12 12 14 8 7 8 9 11 14 14 12 11 8 4 3 6 9 9 9 8 8 9 9 8 8 9 11 13 12 11 11 10 10 12 11 11 10 10 8 6 6
11 12 10 10 12 13 12 11 9 11 11 11 10 11 4 10 7 5 6 8 9 9 8 9 11 11 11 11 11 12 13 12 11 10 9 10 10 11 12 11 11 9 7 6
12 12 15 14 14 12 16 16 11 8 10 9 10 10 8 10 8 7 7 8 9 10 10 11 11 11 11 12 12 12 13 12 11 10 10 9 9 8 8 11 11 10 8 8
7 6 9 13 15 15 14 15 15 11 9 7 9 7 10 8 8 8 8 10 10 9 10 10 11 11 11 12 12 12 13 12 11 11 11 10 10 11 12 12 12 10 9 9
5 5 6 7 10 14 15 12 9 11 11 12 11 12 10 14 10 8 8 9 9 9 10 10 10 11 11 11 12 13 13 13 12 12 10 10 12 12 13 12 12 11 10 9
5 7 4 7 10 13 13 13 12 12 12 12 11 5 6 10 11 10 9 9 9 9 9 9 10 10 11 11 12 12 12 13 12 12 12 13 12 12 12 11 11 10 9 9
3 6 5 4 2 3 11 12 14 12 12 10 11 4 6 8 12 12 11 9 9 9 9 10 10 11 11 12 12 12 12 13 12 13 13 13 12 12 12 12 11 10 9 9
5 4 5 8 8 5 5 5 7 9 8 10 12 5 9 12 12 11 11 9 9 9 10 10 10 11 11 11 12 12 12 13 13 13 14 13 13 13 13 12 11 11 10 9
5 3 5 4 2 2 4 3 5 9 10 9 7 7 11 12 12 11 10 10 10 10 9 10 10 10 10 11 11 12 12 12 13 13 14 13 13 13 12 11 11 10 9 8
6 1 3 3 4 3 3 2 1 2 4 5 1 6 11 11 12 11 11 11 11 11 10 10 9 9 10 10 11 11 12 11 12 13 13 13 12 12 11 10 10 9 8 7
5 3 2 3 1 1 1 3 3 3 3 2 4 5 9 11 12 11 10 11 11 10 10 10 10 10 10 10 10 10 11 10 11 12 12 11 11 10 10 9 8 7 6 5
4 4 5 6 3 7 5 4 6 3 4 4 3 4 11 11 10 9 8 10 11 11 10 10 9 9 9 8 9 10 10 10 11 11 11 10 10 9 8 7 6 5 4 4
6 5 4 5 5 9 4 6 5 4 5 6 5 7 10 13 12 11 9 9 11 10 10 10 9 9 9 9 9 10 10 10 10 10 9 8 8 8 7 6 6 4 3 3
5 5 5 5 6 4 6 5 7 5 3 6 7 10 12 13 13 11 11 10 10 10 10 9 9 9 9 9 9 10 10 10 10 9 8 7 7 7 6 6 5 4 4 3
1 3 5 5 6 3 6 8 6 5 2 6 7 8 8 5 4 6 7 9 11 10 9 9 9 10 9 9 9 10 10 9 9 8 7 7 6 6 6 6 5 4 3 2
4 3 4 5 4 3 9 8 5 3 4 6 8 9 8 8 10 9 9 10 10 10 10 10 10 9 8 8 8 10 9 9 8 8 8 7 7 6 6 5 4 3 2 3
6 5 4 4 3 4 11 7 7 5 5 8 10 11 13 13 13 11 10 10 10 10 10 10 9 9 8 7 9 9 8 8 8 8 8 7 6 5 6 5 4 3 2 1
3 6 5 5 4 5 6 7 6 4 6 8 9 12 14 14 12 12 11 10 10 10 10 9 10 9 8 7 8 8 8 8 7 7 7 6 6 5 4 3 2 1 2 3
2 1 4 2 4 4 5 6 7 7 7 7 9 12 13 14 13 12 11 10 10 10 9 8 9 9 8 7 7 7 7 6 6 6 5 4 4 4 3 1 2 3 4 4
2 2 4 4 0 1 5 6 6 6 6 7 8 10 12 14 14 13 12 11 10 9 8 8 8 8 8 7 6 5 5 4 4 3 3 2 2 2 1 1 3 4 5 6
2 4 5 3 6 4 4 5 5 3 3 6 9 11 12 12 14 13 12 11 10 9 9 8 8 8 7 7 6 5 4 3 3 2 2 1 1 1 1 1 2 4 3 4
Wind_Direction
187 204 208 204 215 240 219 217 208 205 173 239 233 238 237 237 249 246 243 244 247 252 249 226 213 211 205 199 196 195 195 186 181 176 172 167 154 117 85 71 75 88 99 117
189 218 219 214 210 222 220 219 213 208 203 258 249 251 247 242 236 253 276 289 301 306 295 258 227 212 208 203 199 194 193 184 180 174 164 151 122 109 105 90 85 98 110 125
210 216 204 201 200 210 219 226 227 230 213 232 255 246 232 219 209 200 272 338 334 330 319 298 249 226 212 205 200 195 188 179 174 157 137 123 120 112 108 115 115 117 130 141
222 194 186 199 202 204 211 215 231 237 244 232 218 249 210 200 200 187 46 2 351 343 332 324 290 228 215 206 195 189 179 169 159 152 147 147 143 137 147 146 142 136 126 122
212 203 196 204 205 208 216 201 218 232 241 254 222 246 232 185 201 169 46 18 8 359 354 1 10 38 163 177 176 166 151 145 145 145 146 144 144 141 141 139 134 122 106 99
212 203 213 215 207 207 205 189 208 230 237 235 228 233 230 181 170 87 47 33 22 17 29 42 52 64 75 92 107 115 120 122 128 134 140 143 143 142 140 138 130 117 104 99
203 202 209 218 202 195 207 212 210 208 213 228 197 221 201 95 79 58 48 47 44 40 47 56 62 68 75 84 95 106 112 114 119 121 121 129 136 141 141 136 124 121 116 114
202 205 202 210 215 197 206 220 234 231 216 199 176 221 121 104 97 87 76 72 65 57 57 59 61 67 74 81 89 100 105 106 107 109 110 115 119 119 118 119 122 122 120 118
211 207 185 209 217 222 205 220 237 262 270 249 193 154 121 133 122 105 93 81 70 64 62 61 61 64 70 75 80 89 94 95 96 99 102 105 107 110 114 118 120 118 119 122
284 253 203 195 207 220 234 223 219 233 238 235 222 208 187 166 147 123 102 88 80 73 67 62 60 63 66 70 75 79 85 89 93 97 99 101 104 110 115 116 112 114 115 115
270 260 211 186 206 197 205 215 225 233 245 247 239 200 71 143 140 126 104 91 83 76 70 65 63 64 69 72 76 81 84 87 89 92 96 98 100 104 105 106 109 110 111 115
333 273 241 197 161 245 210 218 220 234 233 245 263 107 82 114 122 119 108 95 85 80 74 73 74 75 75 78 80 83 86 89 91 94 95 96 100 102 103 103 104 105 104 103
330 276 229 182 175 173 188 211 231 241 256 249 249 141 109 115 114 113 110 101 92 86 82 80 78 77 78 80 82 85 87 91 95 97 98 97 99 100 100 102 102 101 99 95
287 311 310 308 53 135 174 177 205 232 240 239 248 135 144 139 131 124 116 108 101 93 89 86 83 81 81 83 85 88 89 91 95 97 97 97 97 98 97 95 92 92 92 93
327 330 62 62 73 92 92 64 53 253 294 280 160 145 152 148 137 128 122 118 110 101 95 90 89 88 87 87 86 87 90 93 97 98 96 95 94 92 92 91 90 90 92 98
357 315 236 196 174 295 114 47 43 38 25 53 121 102 116 124 122 122 124 121 114 108 104 101 97 94 91 92 95 96 96 99 101 100 99 98 96 92 90 91 92 93 96 100
340 313 269 247 263 269 230 22 355 4 25 1 348 95 132 125 108 103 112 116 113 111 107 102 98 96 98 101 106 106 105 104 101 101 100 100 100 99 100 104 105 108 110 101
320 308 277 264 245 249 68 42 5 347 23 11 48 96 108 98 82 58 61 93 99 103 103 100 101 101 102 103 104 107 107 106 104 102 102 107 111 114 119 118 115 112 98 81
344 307 288 276 260 242 110 37 357 336 43 45 87 97 104 116 100 61 44 68 86 94 98 99 102 106 107 108 112 113 111 111 111 111 115 121 124 124 122 113 105 92 85 77
359 290 277 273 274 277 47 11 338 286 93 65 101 113 127 155 125 83 66 81 90 95 98 102 105 106 105 108 115 115 113 111 112 117 118 115 111 108 102 96 90 86 81 66
317 303 291 285 272 68 22 339 309 306 51 72 91 89 75 64 77 103 99 92 96 99 102 104 102 99 100 107 111 109 110 115 120 119 112 105 101 97 94 92 85 79 67 50
330 324 334 325 304 52 12 10 32 41 65 88 91 93 97 101 103 105 104 104 105 104 102 101 99 98 98 106 113 116 120 125 125 119 109 102 97 93 99 100 92 71 29 54
328 357 347 4 31 51 39 52 53 54 74 84 99 111 118 119 119 117 113 110 108 106 104 105 109 110 118 129 134 127 129 132 128 118 107 103 102 99 98 100 97 81 23 8
155 316 294 316 87 73 66 65 52 52 64 81 107 123 126 125 126 122 117 114 111 109 112 119 121 122 122 127 124 122 128 132 129 121 115 117 119 126 115 51 24 15 12 8
322 278 277 275 8 139 98 55 36 48 73 93 105 114 122 127 126 122 120 119 118 122 126 126 119 112 108 107 104 110 120 133 133 131 129 132 119 88 104 78 29 1 36 29
247 271 282 349 39 348 25 25 11 21 84 107 114 113 117 122 122 122 121 123 127 125 119 111 105 98 94 92 88 87 99 119 136 152 156 154 127 85 318 320 146 121 54 116